Voltar ao catálogo

STARLINK-31586

AtivoComunicaçõesVLEO
NORAD 59205·PAYLOAD·🇺🇸 United States

Lançado Mar 11, 2024 de Vandenberg Space Force Base

Loading…

Próximas Passagens (próximas 24 horas)

TLE

AtualizadoSource: CelesTrak SupGP

Época: Sep 15, 2026, 01:48 UTC

1 59205C 24046E   26258.07548611  .00055315  00000+0  16346-2 0  2580
2 59205  53.1584 354.7216 0001024  87.1095  93.4040 15.34356463    15

Acompanhe STARLINK-31586 em tempo real com AllMySat

Download on the App Store